Total_Precipitation_Accumulation
2.16 2.11 2.02 1.97 1.82 1.92 2.26 2.50 2.38 2.44 2.38 2.21 1.96 1.79 1.69 1.62 1.54 1.63 1.79 1.98 1.98 1.96 2.10 2.23 2.08 1.87 1.76 1.61 1.45 1.29 1.19 1.13 0.99 0.80 0.70 0.60 0.50 0.50 0.53 0.59 0.57 0.50 0.49
2.55 2.66 2.54 2.39 2.07 1.99 2.08 2.36 2.47 2.64 2.56 2.41 1.85 1.75 1.75 1.76 1.77 1.73 1.84 2.32 2.35 1.96 1.90 2.06 2.21 2.20 2.04 1.86 1.69 1.50 1.37 1.25 1.04 0.81 0.74 0.66 0.54 0.48 0.55 0.64 0.65 0.52 0.39
2.69 2.69 2.50 2.16 1.95 1.98 2.09 2.05 2.09 2.38 2.20 2.07 1.93 2.01 2.00 1.93 1.79 1.75 1.82 2.19 2.21 1.85 1.66 1.69 1.91 2.08 2.17 2.25 2.13 2.01 1.77 1.49 1.20 0.94 0.79 0.65 0.55 0.47 0.46 0.57 0.65 0.56 0.41
2.30 2.36 2.03 1.68 1.77 1.96 2.03 2.07 2.01 2.10 2.11 2.20 2.21 2.17 2.10 1.95 1.60 1.47 1.39 1.44 1.62 1.37 1.46 1.65 1.67 1.68 1.96 2.33 2.49 2.67 2.43 1.91 1.46 1.13 0.92 0.72 0.59 0.46 0.40 0.45 0.55 0.52 0.42
1.75 1.88 1.67 1.58 1.63 1.81 1.85 1.74 1.95 2.11 2.07 2.11 2.05 2.03 1.71 1.53 1.35 1.15 1.08 1.01 1.11 1.20 1.19 1.30 1.40 1.45 1.82 2.34 2.77 3.12 3.09 2.59 2.02 1.61 1.31 1.00 0.82 0.59 0.47 0.41 0.43 0.45 0.39
1.53 1.71 1.60 1.48 1.54 1.67 1.74 1.85 2.01 2.07 1.87 1.81 1.70 1.57 1.31 1.02 0.94 0.89 0.75 0.78 0.86 0.84 0.90 1.05 1.29 1.18 1.59 2.05 2.51 2.95 3.32 3.14 2.48 2.02 1.84 1.58 1.32 0.96 0.64 0.46 0.40 0.39 0.35
1.59 1.73 1.54 1.49 1.40 1.47 1.50 1.59 1.72 1.74 1.50 1.66 1.99 1.63 1.12 0.84 0.77 0.69 0.63 0.64 0.65 0.71 0.89 1.15 1.31 1.34 1.44 1.58 1.81 2.23 2.92 3.25 2.95 2.42 2.16 1.93 1.74 1.36 0.90 0.64 0.49 0.38 0.33
1.45 1.43 1.44 1.31 1.28 1.37 1.36 1.42 1.55 1.54 1.38 1.59 1.91 1.99 1.55 1.20 0.92 0.64 0.59 0.59 0.66 0.79 0.87 0.97 1.29 1.48 1.47 1.86 1.59 1.62 2.14 2.75 3.03 2.84 2.55 2.11 1.82 1.51 1.15 0.92 0.70 0.51 0.41
1.22 1.16 1.15 1.18 1.25 1.15 1.22 1.31 1.46 1.61 1.48 1.38 1.62 1.90 1.70 1.38 1.12 0.83 0.73 0.82 0.93 1.03 1.06 1.21 1.31 1.44 1.53 1.91 1.87 1.72 1.72 1.92 2.53 3.11 3.13 2.56 1.90 1.50 1.36 1.32 1.20 0.89 0.67
1.16 1.06 1.04 1.16 1.22 1.18 1.29 1.11 1.19 1.43 1.56 1.36 1.36 1.42 1.43 1.53 1.53 1.19 0.87 0.81 0.93 1.01 1.02 1.04 1.15 1.36 1.48 1.71 2.01 1.83 1.62 1.52 1.76 2.50 3.07 3.02 2.40 1.72 1.43 1.50 1.80 1.66 1.22
1.13 1.01 1.02 1.10 1.17 1.17 1.22 1.21 1.28 1.24 1.28 1.24 1.24 1.26 1.35 1.48 1.43 1.38 1.17 0.96 0.93 0.82 0.85 0.96 1.13 1.28 1.34 1.56 1.94 1.76 1.69 1.49 1.43 1.65 2.11 2.43 2.44 2.13 1.81 1.82 2.32 2.67 2.41
1.11 1.01 1.03 1.15 1.14 1.10 1.10 1.13 1.17 1.14 1.19 1.22 1.21 1.22 1.32 1.31 1.27 1.40 1.31 1.10 1.03 0.85 0.91 0.99 1.14 1.25 1.27 1.34 1.26 1.28 1.33 1.40 1.36 1.27 1.33 1.52 1.81 2.02 2.07 2.28 2.75 3.23 3.46
1.00 0.99 0.99 1.17 1.26 1.22 1.16 1.18 1.20 1.22 1.28 1.29 1.22 1.22 1.27 1.25 1.28 1.41 1.41 1.19 1.11 1.02 1.14 1.15 1.13 1.25 1.22 1.37 1.32 1.14 1.04 1.11 1.05 0.97 0.93 0.99 1.19 1.44 1.64 1.85 2.22 2.69 3.11
0.95 1.13 1.21 1.23 1.25 1.29 1.28 1.42 1.34 1.32 1.39 1.39 1.29 1.45 1.44 1.29 1.42 1.54 1.64 1.67 1.49 1.39 1.48 1.32 1.16 1.17 1.18 1.20 1.23 1.21 1.12 0.98 0.85 0.75 0.70 0.71 0.76 0.87 1.01 1.19 1.41 1.66 1.92
1.01 1.14 1.24 1.34 1.33 1.31 1.36 1.52 1.51 1.53 1.59 1.52 1.50 1.65 1.62 1.53 1.53 1.52 1.70 1.89 1.95 1.80 1.75 1.56 1.36 1.26 1.20 1.17 1.27 1.19 1.19 1.18 0.90 0.69 0.61 0.58 0.62 0.67 0.70 0.72 0.83 0.95 1.07
1.10 1.12 1.11 1.19 1.22 1.22 1.33 1.56 1.58 1.63 1.77 1.75 1.72 1.76 1.75 1.69 1.75 1.70 1.74 1.93 2.08 2.09 1.88 1.46 1.40 1.34 1.28 1.14 1.20 1.11 1.14 1.22 0.97 0.74 0.62 0.57 0.55 0.57 0.59 0.63 0.67 0.71 0.79
1.15 1.11 1.07 1.10 1.10 1.08 1.17 1.34 1.48 1.65 1.79 1.84 1.80 1.81 1.81 1.89 1.92 1.80 1.84 1.89 2.01 2.15 1.90 1.51 1.56 1.69 1.63 1.42 1.28 1.20 1.09 1.06 0.98 0.92 0.72 0.64 0.59 0.56 0.57 0.58 0.58 0.62 0.70
1.13 1.14 1.16 1.14 1.04 1.03 1.13 1.29 1.44 1.63 1.79 1.89 1.94 1.98 1.83 1.87 1.97 1.93 1.91 1.91 1.96 2.17 2.10 1.94 1.86 1.91 1.85 1.62 1.43 1.23 0.96 0.84 0.89 1.03 0.85 0.71 0.65 0.64 0.65 0.63 0.59 0.60 0.63
1.24 1.23 1.22 1.18 1.16 1.23 1.36 1.44 1.50 1.64 1.80 1.88 1.93 1.92 1.90 1.97 1.90 1.94 1.98 1.95 1.92 1.91 1.99 1.96 1.87 1.97 1.91 1.67 1.47 1.26 1.04 1.02 0.91 0.94 0.89 0.79 0.74 0.72 0.72 0.68 0.63 0.63 0.66
1.21 1.24 1.22 1.29 1.34 1.39 1.44 1.46 1.46 1.51 1.61 1.68 1.68 1.62 1.58 1.64 1.70 1.79 1.78 1.77 1.80 1.83 1.92 1.88 1.89 1.98 1.99 1.97 1.78 1.51 1.31 1.18 1.06 0.93 0.92 0.91 0.90 0.87 0.82 0.73 0.63 0.60 0.63
1.12 1.29 1.34 1.44 1.52 1.50 1.40 1.43 1.44 1.37 1.52 1.48 1.39 1.37 1.39 1.47 1.48 1.53 1.47 1.52 1.64 1.71 1.77 1.86 1.96 2.11 2.12 2.19 2.02 1.74 1.55 1.40 1.23 1.08 1.03 0.99 0.99 0.92 0.88 0.86 0.79 0.69 0.63
1.24 1.35 1.40 1.52 1.55 1.42 1.47 1.50 1.49 1.46 1.50 1.47 1.42 1.37 1.27 1.26 1.23 1.25 1.29 1.35 1.46 1.57 1.70 1.84 1.90 1.97 2.05 2.06 2.01 1.86 1.73 1.53 1.29 1.20 1.32 1.29 1.10 1.07 1.17 1.12 0.99 0.75 0.61
1.34 1.40 1.52 1.56 1.56 1.61 1.54 1.42 1.44 1.38 1.43 1.47 1.51 1.51 1.27 1.11 1.17 1.17 1.29 1.27 1.24 1.28 1.38 1.52 1.63 1.75 1.94 2.04 2.10 2.01 1.97 1.85 1.58 1.35 1.30 1.16 1.06 1.08 1.23 1.34 1.10 0.74 0.64
1.47 1.58 1.63 1.56 1.57 1.61 1.52 1.29 1.21 1.12 1.20 1.31 1.40 1.45 1.44 1.34 1.31 1.33 1.39 1.37 1.28 1.25 1.33 1.36 1.42 1.60 1.91 2.15 2.18 2.14 2.14 2.03 1.75 1.43 1.31 1.18 1.04 1.02 0.91 0.93 0.99 0.77 0.62
1.73 1.81 1.88 1.85 1.76 1.72 1.53 1.20 1.08 1.01 1.13 1.18 1.21 1.23 1.24 1.16 1.15 1.09 1.14 1.21 1.23 1.22 1.20 1.24 1.27 1.37 1.58 1.92 2.09 2.12 2.18 2.05 1.83 1.53 1.33 1.27 1.05 0.98 0.90 0.80 0.83 0.89 0.75
1.98 2.01 1.92 1.80 1.71 1.69 1.60 1.29 1.12 1.09 1.22 1.26 1.33 1.32 1.30 1.24 1.18 1.04 1.03 1.10 1.09 1.11 1.16 1.16 1.13 1.11 1.21 1.49 1.78 1.78 1.82 1.90 1.67 1.44 1.14 1.08 1.01 0.93 0.89 0.76 0.68 0.70 0.74